Location: Damada
(14.7329°N, 3.1761°W)
Time: 15:53:18
(UTC+00:00)

Lacrosse 4 Rocket - Pass Details

Date: 18 February 2020
Orbit: 537 x 622 km, 68.0° (Epoch: 07 April)

Event Time Altitude Azimuth Distance (km) Brightness Sun altitude
Rises 18:29:36 0° 231° (SW) 2,690 6.1 -3.6°
Reaches altitude 10° 18:32:21 10° 251° (WSW) 1,810 5.8 -4.3°
Maximum altitude 18:35:05 18° 294° (WNW) 1,407 4.3 -4.9°
Drops below altitude 10° 18:37:52 10° 336° (NNW) 1,839 4.2 -5.6°
Sets 18:40:43 0° 356° (N) 2,753 4.8 -6.3°
